Regional Weather Roundup
Issued by NWS

Home | Current Version | Previous Version | Text Only | Print | Product List | Glossary Off
Versions: 1 2 3 4 5 6 7 8 9 10 11 12 13 14 15 16 17 18 19 20 21 22 23 24 25 26 27

000
ASUS45 KBOI 270410
RWRID

IDAHO REGIONAL WEATHER ROUNDUP
NATIONAL WEATHER SERVICE BOISE ID
1000 PM MDT SUN MAR 26 2017

NOTE: "FAIR" INDICATES FEW OR NO CLOUDS BELOW 12000 FEET
WITH NO SIGNIFICANT WEATHER AND/OR OBSTRUCTIONS TO VISIBILITY

IDZ012-014-270500-
SOUTHWEST IDAHO


CITY           SKY/WX    TMP DP  RH WIND       PRES   REMARKS
BOISE          CLOUDY    49  34  56 SE10      29.87S
CALDWELL       CLOUDY    45  38  76 E9        29.87
MOUNTAIN HOME  MOCLDY    46  45  98 SE9       29.89S
$$

IDZ016-017-270500-
SOUTHCENTRAL IDAHO


CITY           SKY/WX    TMP DP  RH WIND       PRES   REMARKS
BURLEY         CLOUDY    43  36  76 N6        29.91F
JEROME         CLOUDY    43  37  79 E7        29.91F
TWIN FALLS     CLOUDY    41  36  82 SE9       29.91F
$$

IDZ019>023-270500-
SOUTHEAST IDAHO


CITY           SKY/WX    TMP DP  RH WIND       PRES   REMARKS
IDAHO FALLS    CLOUDY    42  37  82 S9        29.94S
POCATELLO      LGT RAIN  43  37  79 S8        29.95S
REXBURG        CLOUDY    41  35  79 S12       29.93F
$$

IDZ006-010-011-018-031-032-270500-
CENTRAL IDAHO MOUNTAINS


CITY           SKY/WX    TMP DP  RH WIND       PRES   REMARKS
MCCALL         LGT RAIN  35  31  85 CALM      29.85S
HAILEY         CLOUDY    37  34  87 CALM      29.92F
STANLEY          N/A     33  31  92 CALM      29.89R
SALMON         CLOUDY    46  30  53 SE13      29.83S
CHALLIS        CLOUDY    43  30  60 SW6       29.84F
$$

IDZ002-004-006-007-026-270500-
NORTHERN IDAHO


CITY           SKY/WX    TMP DP  RH WIND       PRES   REMARKS
LEWISTON       CLOUDY    46  41  82 CALM      29.83R
LOWELL           N/A     42  39  89 CALM      29.87R
COEUR D`ALENE  LGT RAIN  42  40  92 SW3       29.83R
MULLAN PASS    FOG       30  30 100 VRB5      29.78S VSB 1   WCI  25
$$




USA.gov is the U.S. government's official web portal to all federal, state and local government web resources and services.